sat.trackr.live / text

‹ back to catalog

HTV-X1

NORAD 66174 · 2025-241A

PAYLOAD ACTIVE UNKNOWN

§ Identity

Operator
Country
JPN
Launch date
2025-10-26
Launch site
TANSC
Launch vehicle
Mass (kg)
RCS (m²)

Purposes: station

External: N2YO · Heavens-Above · Gunter

§ Orbital elements

Epoch: 2026-05-25T00:31:04.224288Z

Period
92.08 min
Inclination
51.6363°
Eccentricity
0.0007748
Mean motion
15.63802982 rev/d
Perigee alt
371.4 km
Apogee alt
381.9 km
Semi-major
6,754.8 km
B*
2.6236e-4
RAAN
57.5527°
Arg perigee
97.0203°
Mean anomaly
263.1673°
Rev number
3,272

§ Raw data

HTV-X11 66174U 25241A   26145.02157667  .00024628  00000+0  26236-3 0  99932 66174  51.6363  57.5527 0007748  97.0203 263.1673 15.63802982 32724

JSON: /api/v1/satellites/66174 · /tle

For live sub-satellite position, see the globe view (requires WebGL).

§ Visibility from observer

Set your observer location to see the next 7 days of passes ≥ 10°. The values pass through the URL so the page stays shareable.

No JS? Fill the form by hand. The geolocation button needs JavaScript.